TimeCST,TemperatureF,Dew PointF,Humidity,Sea Level PressureIn,VisibilityMPH,Wind Direction,Wind SpeedMPH,Gust SpeedMPH,PrecipitationIn,Events,Conditions,WindDirDegrees,DateUTC
12:04 AM,28.4,24.8,86,29.61,6.0,NNE,8.1,-,0.00,Snow,Light Snow,30,2013-02-14 06:04:00
12:14 AM,28.4,24.8,86,29.62,5.0,NNE,5.8,-,0.00,Snow,Light Snow,30,2013-02-14 06:14:00
12:53 AM,28.0,23.0,81,29.66,10.0,NE,4.6,-,0.00,,Overcast,40,2013-02-14 06:53:00
1:53 AM,28.0,21.9,78,29.67,10.0,Calm,Calm,-,N/A,,Overcast,0,2013-02-14 07:53:00
2:53 AM,27.0,21.9,81,29.68,10.0,Variable,4.6,-,N/A,,Overcast,0,2013-02-14 08:53:00
3:53 AM,27.0,21.0,78,29.68,10.0,North,3.5,-,N/A,,Overcast,10,2013-02-14 09:53:00
4:53 AM,26.1,21.0,81,29.72,10.0,Calm,Calm,-,N/A,,Clear,0,2013-02-14 10:53:00
5:46 AM,24.8,21.2,86,29.68,10.0,Calm,Calm,-,N/A,,Overcast,0,2013-02-14 11:46:00
5:53 AM,25.0,21.0,85,29.73,10.0,Calm,Calm,-,N/A,,Overcast,0,2013-02-14 11:53:00
6:40 AM,26.6,21.2,80,29.70,9.0,Calm,Calm,-,0.00,,Overcast,0,2013-02-14 12:40:00
6:53 AM,26.1,21.0,81,29.76,10.0,Calm,Calm,-,0.00,,Overcast,0,2013-02-14 12:53:00
7:53 AM,26.1,21.0,81,29.78,10.0,NW,3.5,-,N/A,,Overcast,320,2013-02-14 13:53:00
8:53 AM,27.0,21.9,81,29.81,10.0,Variable,3.5,-,N/A,,Overcast,0,2013-02-14 14:53:00
9:33 AM,28.4,21.2,74,29.76,10.0,Variable,4.6,-,N/A,,Overcast,0,2013-02-14 15:33:00
9:53 AM,28.9,21.9,75,29.82,10.0,Variable,3.5,-,N/A,,Overcast,0,2013-02-14 15:53:00
10:06 AM,28.4,21.2,74,29.77,10.0,Variable,5.8,-,N/A,,Overcast,0,2013-02-14 16:06:00
10:53 AM,28.9,21.9,75,29.83,10.0,WNW,8.1,-,N/A,,Overcast,300,2013-02-14 16:53:00
11:45 AM,28.4,19.4,69,29.80,9.0,NW,8.1,-,0.00,,Overcast,320,2013-02-14 17:45:00
11:53 AM,28.9,19.9,69,29.85,7.0,Variable,3.5,-,0.00,Snow,Light Snow,0,2013-02-14 17:53:00
12:02 PM,28.4,19.4,69,29.80,6.0,NW,5.8,-,0.00,Snow,Light Snow,310,2013-02-14 18:02:00
12:53 PM,26.1,19.0,75,29.87,4.0,Variable,5.8,-,0.00,Snow,Light Snow,0,2013-02-14 18:53:00
1:53 PM,24.1,16.0,71,29.90,6.0,Variable,3.5,-,0.00,Snow,Light Snow,0,2013-02-14 19:53:00
2:53 PM,21.9,12.9,68,29.94,5.0,Variable,5.8,-,0.00,Snow,Light Snow,0,2013-02-14 20:53:00
3:35 PM,21.2,12.2,68,29.90,10.0,Variable,5.8,-,0.00,,Overcast,0,2013-02-14 21:35:00
3:53 PM,21.9,10.9,63,29.97,10.0,Variable,3.5,-,0.00,,Overcast,0,2013-02-14 21:53:00
4:53 PM,19.9,3.9,50,30.02,10.0,Variable,4.6,-,N/A,,Partly Cloudy,0,2013-02-14 22:53:00
5:53 PM,18.0,5.0,57,30.05,10.0,Variable,3.5,-,N/A,,Clear,0,2013-02-14 23:53:00
6:53 PM,17.1,3.9,56,30.07,10.0,Variable,3.5,-,N/A,,Mostly Cloudy,0,2013-02-15 00:53:00
7:53 PM,17.1,3.0,54,30.09,10.0,Calm,Calm,-,N/A,,Scattered Clouds,0,2013-02-15 01:53:00
8:53 PM,16.0,1.9,54,30.10,10.0,Calm,Calm,-,N/A,,Clear,0,2013-02-15 02:53:00
9:53 PM,14.0,1.9,59,30.12,10.0,Calm,Calm,-,N/A,,Clear,0,2013-02-15 03:53:00
10:53 PM,9.0,1.0,70,30.14,10.0,Calm,Calm,-,N/A,,Clear,0,2013-02-15 04:53:00
11:53 PM,3.0,-4.0,73,30.15,10.0,Calm,Calm,-,N/A,,Partly Cloudy,0,2013-02-15 05:53:00